User: anonymous   Login
Location: Unspecified
(0.0000°N, 0.0000°E)
Time: 10:16:52
(UTC+00:00)
Language:

OBJECT PK - Orbit

View from above orbital plane
View from above orbital plane
View from above satellite
View from above satellite

Ground track
Ground track

The orbit data is extracted from the following two-line orbital elements,

1 43598U 98067PK  19107.91530762 +.00017461 +00000-0 +21268-3 0  9991
2 43598 051.6367 294.2091 0003953 243.1004 116.9586 15.60601428038202
Epoch (UTC): 17 April 2019 21:58:02
Eccentricity: 0.0003953
inclination: 51.6367°
perigee height: 383 km
apogee height: 388 km
right ascension of ascending node: 294.2091°
argument of perigee: 243.1004°
revolutions per day: 15.60601428
mean anomaly at epoch: 116.9586°
orbit number at epoch: 3820

The dashed part of the orbit path shows where the satellite is in the earth's shadow,  

DLR